カタログに戻る

STARLINK-34618

運用中通信VLEO
NORAD 64770·PAYLOAD·🇺🇸 United States

打ち上げ Jul 8, 2025 から Cape Canaveral Space Force Station

Loading…

次のパス (今後24時間)

TLE

最新Source: CelesTrak SupGP

元期: Sep 15, 2026, 04:02 UTC

1 64770C 25147R   26258.16854167 -.00027934  00000+0 -82540-3 0  2580
2 64770  53.1583  78.3139 0001223  87.8891 243.3661 15.34401046    15

AllMySatでSTARLINK-34618をリアルタイム追跡

Download on the App Store